Location: Lake Almanor
(40.2485°N, 121.1442°W)
Time: 23:25:21
(UTC-08:00)

STARLINK-1075 - Pass Details

Date: 30 January 2020
Orbit: 349 x 351 km, 53.0° (Epoch: 22 February)

Event Time Altitude Azimuth Distance (km) Brightness Sun altitude
Rises 17:37:18 0° 319° (NW) 2,177 7.0 -3.8°
Reaches altitude 10° 17:39:58 10° 346° (NNW) 1,331 5.5 -4.3°
Maximum altitude 17:41:43 14° 22° (NNE) 1,104 4.8 -4.6°
Drops below altitude 10° 17:43:27 10° 58° (ENE) 1,328 4.9 -4.9°
Enters shadow 17:44:22 - 71° (ENE) 1,580 5.2 -5.1°
